Preview of NWS' New Version of Forecast
This preview is not operational and should not be used for support decisions.

Regional Weather Roundup (RWR)

Issued by Philadelphia/Mt Holly (PHI)

                            
000
ASUS41 KPHI 180112
RWRPHI

REGIONAL WEATHER ROUNDUP
NATIONAL WEATHER SERVICE MOUNT HOLLY NJ
800 PM EST THU JAN 17 2019

NOTE:  "FAIR" INDICATES FEW OR NO CLOUDS BELOW 12,000 FEET WITH NO
SIGNIFICANT WEATHER AND/OR OBSTRUCTIONS TO VISIBILITY.

 * = STATION DOES NOT REPORT PRECIPITATION (E.G. RAIN, SNOW, ETC.) 
        OR FOG.

NJZ015>026-180200-
SOUTHERN NEW JERSEY
  
CITY           SKY/WX    TMP DP  RH WIND       PRES   REMARKS
POMONA         CLOUDY    30  24  78 CALM      30.28F                  
WILDWOOD*      CLOUDY    34  23  64 E5        30.26F WCI  30          
MILLVILLE      CLOUDY    31  21  66 NE7       30.25F WCI  24          
WRIGHTSTOWN    CLOUDY    27  19  72 NE6       30.25F WCI  20          
MOUNT HOLLY    FAIR      29  19  66 E3        30.28F                  
TRENTON        CLOUDY    30  19  63 E5        30.27F WCI  25          

$$
NJZ001>014-180200-
NORTHERN NEW JERSEY
  
CITY           SKY/WX    TMP DP  RH WIND       PRES   REMARKS
SUSSEX         FAIR      26  13  57 CALM      30.25F                  
ANDOVER*         N/A     27  11  51 VRB3      30.25F                  
MORRISTOWN     CLOUDY    28  19  69 S3        30.30F                  
NEWARK         CLOUDY    31  18  58 SE6       30.31S WCI  25          
TETERBORO      FAIR      30  15  53 S8        30.30F WCI  22          
CALDWELL       MOCLDY    28  15  58 CALM      30.30F                  
SOMERVILLE     MOCLDY    30  17  58 SE3       30.28S                  
ALLAIRE*       FAIR      29  21  72 N5        30.30F WCI  24          
TOMS RIVER*    FAIR      27  21  78 CALM      30.29F                  

$$
PAZ043-044-047-054-055-060>062-066>071-180200-
EASTERN PENNSYLVANIA
  
CITY           SKY/WX    TMP DP  RH WIND       PRES   REMARKS
PHILADELPHIA   CLOUDY    32  19  58 E9        30.26F WCI  24          
NORTH PHILA    CLOUDY    32  19  58 SE7       30.28F WCI  26          
BLUE BELL*     CLOUDY    30  16  55 E3        30.26F                  
DOYLESTOWN     CLOUDY    29  16  58 VRB3      30.25F                  
QUAKERTOWN*    CLOUDY    28   7  40 E6        30.24  WCI  22          
PERKASIE*      CLOUDY    28  10  47 E5        30.24F WCI  23          
POTTSTOWN      CLOUDY    29   8  41 CALM      30.26F                  
LANCASTER      LGT SNOW  28  25  88 E5        30.23F FOG     WCI  23  
COATESVILLE    CLOUDY    28  16  59 E8        30.23F WCI  20          
READING        FLURRIES  29  20  69 S9        30.24S WCI  20          
ALLENTOWN      CLOUDY    31   4  31 E3        30.25F                  
MOUNT POCONO   CLOUDY    21   3  45 SE8G18    30.15S WCI  11          
HAZLETON       FLURRIES N/A N/A N/A SE6       30.17F                  
LEHIGHTON      CLOUDY    30  10  43 CALM      30.25F                  
WILKES BARRE   CLOUDY    27   5  39 S3        30.19S                  

$$
DEZALL-MDZ008-012-015-019-020-180200-
DELAWARE AND EASTERN MARYLAND
  
CITY           SKY/WX    TMP DP  RH WIND       PRES   REMARKS
WILMINGTON     CLOUDY    32  17  54 E8        30.25F WCI  25          
DOVER          CLOUDY    34  25  70 E5        30.24F WCI  30          
GEORGETOWN     MOCLDY    36  26  67 E6        30.24F WCI  31          
EASTON         PTCLDY    36  27  69 E2        30.27F                  
ABERDEEN       FLURRIES  30  23  74 E9        30.26  WCI  22          
PATUXENT       CLOUDY    39  31  72 SE9       30.23  WCI  33          
OCEAN CITY     MOCLDY    39  29  67 E8        30.24F WCI  33          
WALLOPS ISLAND CLOUDY    39  30  70 E7        30.23F WCI  34          
CAMBRIDGE      CLOUDY    36  28  75 E6        30.24S WCI  31          
SALISBURY      CLOUDY    34  29  82 NE6       30.23F WCI  29          

$$
PAZ001-021-NYZ056-072-MDZ011-DCZ001-180200-
OTHER NEARBY LOCATIONS
  
CITY           SKY/WX    TMP DP  RH WIND       PRES   REMARKS
HARRISBURG     LGT SNOW  28  25  88 SE8       30.22F VSB 1   WCI  20  
STATE COLLEGE  LGT SNOW  25  23  93 CALM      30.13F                  
WILLIAMSPORT   FLURRIES  27  21  78 E9        30.19F WCI  18          
BINGHAMTON     CLOUDY    23   5  46 S10       30.09F WCI  12          
NEW YORK CITY  FAIR      30  15  53 MISG      30.32F                  
BALTIMORE      LGT SNOW  31  29  92 E6        30.23F VSB 1   WCI  25  
WASHINGTON DC  LGT SNOW  34  31  88 E3        30.24F FOG              

$$